Time,TemperatureF,DewpointF,PressureIn,WindDirection,WindDirectionDegrees,WindSpeedMPH,WindSpeedGustMPH,Humidity,HourlyPrecipIn,Conditions,Clouds,dailyrainin,SoftwareType,DateUTC
2013-04-28 00:00:00,47.0,-99.9,-100.00,ESE,116,42.0,-999.0,-999,-99.99,,,0.00,,2013-04-28 06:00:00,
2013-04-28 00:52:00,47.0,-99.9,-100.00,North,-999,-999.0,-999.0,-999,-99.99,,,0.00,,2013-04-28 06:52:00,
2013-04-28 01:00:00,45.0,-99.9,-100.00,North,-999,-999.0,-999.0,-999,-99.99,,,0.00,,2013-04-28 07:00:00,
2013-04-28 01:52:00,45.0,-99.9,-100.00,North,-999,-999.0,-999.0,-999,-99.99,,,0.00,,2013-04-28 07:52:00,
2013-04-28 02:00:00,44.0,-99.9,-100.00,SE,128,52.0,-999.0,-999,-99.99,,,0.00,,2013-04-28 08:00:00,
2013-04-28 03:00:00,45.0,-99.9,-100.00,SE,135,50.0,-999.0,-999,-99.99,,,0.00,,2013-04-28 09:00:00,
2013-04-28 04:00:00,45.0,-99.9,-100.00,SE,145,51.0,-999.0,-999,-99.99,,,0.00,,2013-04-28 10:00:00,
2013-04-28 05:00:00,44.0,-99.9,-100.00,SSE,151,52.0,-999.0,-999,-99.99,,,0.00,,2013-04-28 11:00:00,
2013-04-28 06:00:00,44.0,-99.9,-100.00,SSE,153,56.0,-999.0,-999,-99.99,,,0.00,,2013-04-28 12:00:00,
2013-04-28 07:00:00,44.0,-99.9,-100.00,SSE,157,54.0,-999.0,-999,-99.99,,,0.00,,2013-04-28 13:00:00,
2013-04-28 08:00:00,45.0,-99.9,-100.00,SSE,154,53.0,-999.0,-999,-99.99,,,0.00,,2013-04-28 14:00:00,
2013-04-28 09:00:00,45.0,-99.9,-100.00,SSE,154,54.0,-999.0,-999,-99.99,,,0.00,,2013-04-28 15:00:00,
2013-04-28 10:00:00,56.0,-99.9,-100.00,SE,132,51.0,-999.0,-999,-99.99,,,-99.99,,2013-04-28 16:00:00,
2013-04-28 11:00:00,58.0,-99.9,-100.00,East,94,37.0,-999.0,-999,-99.99,,,0.00,,2013-04-28 17:00:00,
2013-04-28 12:00:00,58.0,-99.9,-100.00,East,87,32.0,-999.0,-999,-99.99,,,0.00,,2013-04-28 18:00:00,
2013-04-28 13:00:00,58.0,-99.9,-100.00,East,89,32.0,-999.0,-999,-99.99,,,0.00,,2013-04-28 19:00:00,
2013-04-28 14:00:00,60.0,-99.9,-100.00,East,91,34.0,-999.0,-999,-99.99,,,0.00,,2013-04-28 20:00:00,
2013-04-28 15:00:00,58.0,-99.9,-100.00,East,90,32.0,-999.0,-999,-99.99,,,0.00,,2013-04-28 21:00:00,
2013-04-28 16:00:00,57.0,-99.9,-100.00,East,90,33.0,-999.0,-999,-99.99,,,0.00,,2013-04-28 22:00:00,
2013-04-28 17:00:00,56.0,-99.9,-100.00,East,97,36.0,-999.0,-999,-99.99,,,-99.99,,2013-04-28 23:00:00,
2013-04-28 18:00:00,55.0,-99.9,-100.00,ESE,110,39.0,-999.0,-999,-99.99,,,-99.99,,2013-04-29 00:00:00,
2013-04-28 18:52:00,55.0,-99.9,-100.00,ESE,110,39.0,-999.0,-999,-99.99,,,-99.99,,2013-04-29 00:52:00,
2013-04-28 19:00:00,52.0,-99.9,-100.00,ESE,117,45.0,-999.0,-999,-99.99,,,0.00,,2013-04-29 01:00:00,
2013-04-28 20:00:00,46.0,-99.9,-100.00,SSE,153,60.0,-999.0,-999,-99.99,,,0.00,,2013-04-29 02:00:00,
2013-04-28 21:00:00,48.0,-99.9,-100.00,SSE,165,59.0,-999.0,-999,-99.99,,,0.00,,2013-04-29 03:00:00,
2013-04-28 22:00:00,46.0,-99.9,-100.00,South,179,67.0,-999.0,-999,-99.99,,,0.00,,2013-04-29 04:00:00,
2013-04-28 23:00:00,46.0,-99.9,-100.00,SSW,193,69.0,-999.0,-999,-99.99,,,0.00,,2013-04-29 05:00:00,